Location: Cincinnati Observatory Center
(39.1389°N, 84.4225°W)
Time: 05:30:08
(UTC-05:00)

Amateur Radio Satellites - All Passes

Search period start: 18 November 2017 05:00
Search period end: 19 November 2017 05:00
Location: Cincinnati Observatory Center, 39.1389°N, 84.4225°W

Satellite Date Start Highest point End Downlink Frequencies (MHz)
Time Altitude Azimuth
BEESAT 2 18 Nov 05:01:48 05:05:47 81° 299° (WNW) 05:09:52 435.950
nSIGHT-1 18 Nov 05:06:12 05:09:23 78° 35° (NE) 05:12:35 .
ITAMSAT 1 18 Nov 05:11:13 05:16:02 38° 291° (WNW) 05:20:48 435.822/435.867
AO-7 18 Nov 05:14:58 05:22:55 51° 296° (WNW) 05:30:52 .
CUBESAT XI-V 18 Nov 05:18:12 05:21:08 17° 268° (W) 05:24:06 437.345
RS-15 18 Nov 05:23:37 05:35:23 77° 244° (WSW) 05:46:31 29.354- 29.394
AO-85 18 Nov 05:30:37 05:34:27 78° 121° (ESE) 05:38:28 145.980
ISS 18 Nov 05:38:33 05:41:47 59° 222° (SW) 05:44:58 437.550
DOVE 4 18 Nov 05:39:19 05:44:35 78° 102° (ESE) 05:49:35 437.250
BEESAT 3 18 Nov 05:39:35 05:41:16 12° 317° (NW) 05:42:58 437.485
LilacSat-2 18 Nov 05:52:45 05:55:32 19° 94° (E) 05:58:20 437.200
XW-2C 18 Nov 05:55:22 05:58:07 19° 94° (E) 06:00:52 145.795 - 145.815
KKS-1 18 Nov 05:56:38 06:00:18 25° 264° (W) 06:04:01 437.445
NUDT-PHONESAT 18 Nov 06:01:25 06:03:32 15° 93° (E) 06:05:40 437.300
XW-2F 18 Nov 06:09:07 06:12:19 26° 96° (E) 06:15:31 145.980 - 146.000
CUTE-I 18 Nov 06:17:23 06:22:08 31° 96° (E) 06:26:49 437.470
STRAND 1 18 Nov 06:22:01 06:26:13 26° 67° (ENE) 06:30:26 437.568
STARS 18 Nov 06:31:04 06:34:46 26° 264° (W) 06:38:31 437.465
KAITUO 1B 18 Nov 06:42:56 06:46:37 54° 100° (E) 06:50:19 145.475/437.950
XW-2D 18 Nov 06:48:30 06:52:18 84° 282° (WNW) 06:56:07 145.860 - 145.880
FO-29 18 Nov 06:50:40 06:54:37 17° 55° (NE) 06:58:49 435.910
YUBILEINY 18 Nov 06:52:23 07:01:06 75° 278° (W) 07:09:57 435.215
SEEDS 18 Nov 06:52:54 06:54:46 13° 91° (E) 06:56:38 437.485
XW-2B 18 Nov 07:03:15 07:06:59 56° 285° (WNW) 07:10:43 145.730 - 145.750
SO-50 18 Nov 07:05:12 07:09:04 26° 48° (NE) 07:13:00 436.795
HO-68 18 Nov 07:05:48 07:12:24 38° 98° (E) 07:18:56 435.675
AO-7 18 Nov 07:12:07 07:13:42 11° 316° (NW) 07:15:17 .
AO-85 18 Nov 07:14:04 07:15:26 11° 320° (NW) 07:16:50 145.980
DOVE 4 18 Nov 07:19:05 07:21:27 13° 299° (WNW) 07:23:48 437.250
LilacSat-2 18 Nov 07:26:33 07:29:47 26° 289° (WNW) 07:33:01 437.200
XW-2C 18 Nov 07:29:03 07:32:16 26° 289° (WNW) 07:35:28 145.795 - 145.815
NUDT-PHONESAT 18 Nov 07:34:08 07:37:27 32° 288° (WNW) 07:40:47 437.300
UWE-3 18 Nov 07:37:32 07:40:40 21° 94° (E) 07:43:48 435.000/436.395/437.385
RS-15 18 Nov 07:39:36 07:45:34 16° 264° (W) 07:51:26 29.354- 29.394
XW-2F 18 Nov 07:43:29 07:46:15 20° 291° (WNW) 07:49:01 145.980 - 146.000
CUTE 1.7 + AOD 2 18 Nov 07:49:02 07:53:19 83° 283° (WNW) 07:57:35 437.475
CUTE-I 18 Nov 07:57:23 08:02:06 32° 292° (WNW) 08:06:47 437.470
STRAND 1 18 Nov 08:00:28 08:05:11 36° 262° (W) 08:09:57 437.568
CUBEBUG 2 18 Nov 08:08:51 08:13:03 88° 284° (WNW) 08:17:11 437.445
XW-2A 18 Nov 08:17:23 08:20:42 61° 101° (ESE) 08:24:01 145.665 - 145.685
SEEDS 18 Nov 08:26:35 08:30:42 50° 286° (WNW) 08:34:48 437.485
AO-73 18 Nov 08:28:32 08:32:22 36° 98° (E) 08:36:11 145.935
FO-29 18 Nov 08:32:05 08:38:26 89° 82° (E) 08:45:43 435.910
AAUSAT CUBESAT 2 18 Nov 08:44:00 08:48:11 76° 284° (WNW) 08:52:21 437.432
SO-50 18 Nov 08:45:19 08:49:37 38° 245° (WSW) 08:53:58 436.795
Oscar 11 18 Nov 08:48:50 08:52:57 42° 98° (E) 08:57:03 .
PCSat 18 Nov 08:53:05 08:54:54 11° 40° (NE) 08:56:41 145.827
HO-68 18 Nov 08:53:29 09:00:05 40° 295° (WNW) 09:06:38 435.675
YUBILEINY 18 Nov 08:55:18 08:59:33 14° 300° (WNW) 09:03:51 435.215
ZACube-1 18 Nov 09:11:17 09:15:22 59° 285° (WNW) 09:19:26 437.345
UWE-3 18 Nov 09:13:34 09:17:08 28° 290° (WNW) 09:20:41 435.000/436.395/437.385
UNISAT 6 18 Nov 09:39:13 09:43:50 86° 79° (E) 09:48:24 437.425
TIGRISAT 18 Nov 09:44:32 09:49:10 89° 82° (E) 09:53:43 435.000
DELFI C3 18 Nov 09:47:08 09:50:52 37° 98° (E) 09:54:35 145.870
Max Valier Satellite 18 Nov 10:01:38 10:05:03 37° 98° (E) 10:08:27 145.860
AO-73 18 Nov 10:05:37 10:08:19 17° 293° (WNW) 10:11:01 145.935
PRISM 18 Nov 10:06:17 10:10:18 59° 74° (ENE) 10:14:23 437.425
EO-88 18 Nov 10:08:07 10:11:23 30° 97° (E) 10:14:38 145.990 - 145.960
FO-29 18 Nov 10:21:27 10:24:36 14° 275° (W) 10:27:55 435.910
Oscar 11 18 Nov 10:26:00 10:28:44 17° 294° (WNW) 10:31:27 .
POLYITAN 1 18 Nov 10:27:44 10:28:08 10° 63° (ENE) 10:28:33 437.675
PCSat 18 Nov 10:33:56 10:39:21 66° 60° (ENE) 10:44:43 145.827
AIST 2D 18 Nov 10:35:17 10:38:20 30° 73° (ENE) 10:41:24 435.315
QB50P2 18 Nov 10:47:49 10:50:54 20° 67° (ENE) 10:53:59 145.880/145.840
ESTCUBE 1 18 Nov 11:06:54 11:09:44 16° 92° (E) 11:12:34 437.505/2401.250
FALCONSAT 3 18 Nov 11:11:02 11:13:42 19° 157° (SSE) 11:16:21 435.103
DELFI C3 18 Nov 11:22:51 11:25:17 16° 293° (WNW) 11:27:42 145.870
Max Valier Satellite 18 Nov 11:36:44 11:38:31 13° 293° (WNW) 11:40:17 145.860
DUCHIFAT 1 18 Nov 11:41:42 11:45:49 54° 74° (ENE) 11:49:57 145.980
EO-88 18 Nov 11:42:31 11:44:45 16° 292° (WNW) 11:46:58 145.990 - 145.960
EO-79 18 Nov 11:44:40 11:48:55 79° 76° (ENE) 11:53:11 145.935-145.965
PRISM 18 Nov 11:45:45 11:45:55 10° 269° (W) 11:46:04 437.425
NANOSAT C BR1 18 Nov 11:50:12 11:54:26 80° 76° (ENE) 11:58:40 145.865
POLYITAN 1 18 Nov 11:59:04 12:03:18 71° 258° (WSW) 12:07:33 437.675
AIST 2D 18 Nov 12:09:52 12:11:34 13° 267° (W) 12:13:17 435.315
LO-87 18 Nov 12:16:35 12:19:59 44° 286° (WNW) 12:23:21 145.935 - 145.965
BEESAT 3 18 Nov 12:17:07 12:20:37 29° 52° (NE) 12:24:02 437.485
PCSat 18 Nov 12:18:58 12:22:08 16° 256° (WSW) 12:25:16 145.827
QB50P2 18 Nov 12:22:35 12:26:26 33° 263° (W) 12:30:18 145.880/145.840
ESTCUBE 1 18 Nov 12:42:25 12:46:44 44° 288° (WNW) 12:51:01 437.505/2401.250
BUGSAT 1 18 Nov 12:47:12 12:51:24 74° 76° (ENE) 12:55:36 437.445
FALCONSAT 3 18 Nov 12:48:51 12:52:21 41° 172° (S) 12:55:51 435.103
Gurwin Techsat 1B 18 Nov 13:02:28 13:07:24 40° 70° (ENE) 13:12:21 435.225
Oscar 19 18 Nov 13:03:06 13:08:06 57° 73° (ENE) 13:13:08 437.125/150
SPROUT 18 Nov 13:03:41 13:07:57 77° 104° (ESE) 13:12:10 437.525
O/OREOS (USA 219) 18 Nov 13:15:27 13:17:35 13° 98° (E) 13:19:43 437.305
VELOX 1 18 Nov 13:17:09 13:21:36 66° 102° (ESE) 13:26:00 145.980
DUCHIFAT 1 18 Nov 13:20:18 13:21:46 12° 269° (W) 13:23:14 145.980
BEESAT 2 18 Nov 13:20:24 13:24:12 39° 54° (NE) 13:27:57 435.950
50 SAT 18 Nov 13:28:29 13:30:35 16° 95° (E) 13:32:41 437.505
UKube-1 18 Nov 13:28:56 13:29:47 10° 91° (E) 13:30:38 .
BEESAT 3 18 Nov 13:54:54 13:57:58 22° 248° (WSW) 14:00:59 437.485
AO-85 18 Nov 14:01:45 14:06:19 50° 55° (NE) 14:11:13 145.980
DX 1 18 Nov 14:12:56 14:17:17 59° 101° (E) 14:21:35 434.975-435.025
AO-7 18 Nov 14:20:15 14:27:57 45° 63° (ENE) 14:35:40 .
M-CUBED/EXP-1 PRIME 18 Nov 14:24:13 14:27:36 66° 253° (WSW) 14:31:17 437.505
FALCONSAT 3 18 Nov 14:27:39 14:31:11 43° 187° (S) 14:34:43 435.103
Gurwin Techsat 1B 18 Nov 14:43:13 14:47:27 24° 266° (W) 14:51:42 435.225
Oscar 19 18 Nov 14:44:45 14:47:46 16° 268° (W) 14:50:47 437.125/150
BEESAT 18 Nov 14:46:22 14:47:20 11° 90° (E) 14:48:18 436.000
ITAMSAT 1 18 Nov 14:48:56 14:53:36 34° 68° (ENE) 14:58:19 435.822/435.867
O/OREOS (USA 219) 18 Nov 14:51:57 14:56:27 56° 294° (WNW) 15:01:00 437.305
ITUPSAT 1 18 Nov 14:52:51 14:54:56 13° 91° (E) 14:56:58 437.325
VELOX 1 18 Nov 14:55:46 14:57:27 12° 297° (WNW) 14:59:08 145.980
BEESAT 2 18 Nov 14:59:01 15:01:35 17° 250° (WSW) 15:04:08 435.950
50 SAT 18 Nov 15:00:07 15:02:39 21° 290° (WNW) 15:05:08 437.505
UKube-1 18 Nov 15:01:53 15:06:10 62° 286° (WNW) 15:10:25 .
NO-84 18 Nov 15:23:18 15:25:38 16° 122° (ESE) 15:28:05 435.350 FM
MOZHAYETS 4 18 Nov 15:33:24 15:37:49 48° 99° (E) 15:42:14
CUBESAT XI-V 18 Nov 15:38:42 15:40:28 12° 90° (E) 15:42:14 437.345
AO-85 18 Nov 15:43:00 15:46:27 20° 249° (WSW) 15:50:04 145.980
DX 1 18 Nov 15:50:58 15:52:56 13° 297° (WNW) 15:54:53 434.975-435.025
FALCONSAT 3 18 Nov 16:07:02 16:09:52 21° 202° (SSW) 16:12:41 435.103
AO-7 18 Nov 16:13:05 16:20:41 40° 261° (W) 16:28:22 .
BEESAT 18 Nov 16:20:50 16:25:35 73° 285° (WNW) 16:30:18 436.000
ITUPSAT 1 18 Nov 16:28:25 16:33:07 62° 287° (WNW) 16:37:48 437.325
ITAMSAT 1 18 Nov 16:28:38 16:33:03 28° 264° (W) 16:37:31 435.822/435.867
DOVE 4 18 Nov 16:42:41 16:47:33 67° 75° (ENE) 16:52:42 437.250
XW-2F 18 Nov 16:50:45 16:51:51 11° 65° (ENE) 16:52:56 145.980 - 146.000
NO-84 18 Nov 16:58:52 17:02:32 53° 320° (NW) 17:06:31 435.350 FM
YUBILEINY 18 Nov 17:04:01 17:12:40 53° 77° (ENE) 17:21:13 435.215
MOZHAYETS 4 18 Nov 17:11:46 17:14:34 16° 295° (WNW) 17:17:23
CUBESAT XI-V 18 Nov 17:13:34 17:18:13 64° 285° (WNW) 17:22:51 437.345
KAITUO 1B 18 Nov 17:22:10 17:24:56 21° 69° (ENE) 17:27:44 145.475/437.950
XW-2D 18 Nov 17:28:24 17:31:50 36° 73° (ENE) 17:35:17 145.860 - 145.880
HO-68 18 Nov 17:34:03 17:39:44 26° 60° (ENE) 17:45:26 435.675
RS-15 18 Nov 17:37:02 17:44:36 19° 98° (E) 17:52:10 29.354- 29.394
CUTE-I 18 Nov 17:37:53 17:42:57 46° 71° (ENE) 17:48:05 437.470
XW-2B 18 Nov 17:42:52 17:46:30 53° 75° (ENE) 17:50:10 145.730 - 145.750
KKS-1 18 Nov 17:47:31 17:51:59 66° 102° (ESE) 17:56:24 437.445
LilacSat-2 18 Nov 18:06:22 18:10:04 65° 259° (W) 18:13:49 437.200
XW-2C 18 Nov 18:08:12 18:11:55 67° 260° (W) 18:15:38 145.795 - 145.815
NUDT-PHONESAT 18 Nov 18:11:08 18:14:46 87° 71° (ENE) 18:18:26 437.300
STARS 18 Nov 18:20:28 18:24:49 58° 101° (E) 18:29:07 437.465
XW-2F 18 Nov 18:21:56 18:25:30 46° 261° (W) 18:29:06 145.980 - 146.000
DOVE 4 18 Nov 18:23:25 18:25:44 13° 272° (W) 18:28:06 437.250
UWE-3 18 Nov 18:33:44 18:36:36 17° 67° (ENE) 18:39:24 435.000/436.395/437.385
NO-84 18 Nov 18:38:37 18:40:44 14° 340° (NNW) 18:42:55 435.350 FM
CUTE 1.7 + AOD 2 18 Nov 18:40:08 18:44:14 57° 75° (ENE) 18:48:22 437.475
JUGNU 18 Nov 18:46:00 18:46:53 10° 183° (S) 18:47:47 437.505
XW-2A 18 Nov 18:48:09 18:50:17 16° 69° (ENE) 18:52:24 145.665 - 145.685
KAITUO 1B 18 Nov 18:55:51 18:58:47 22° 265° (W) 19:01:44 145.475/437.950
YUBILEINY 18 Nov 19:01:30 19:09:00 32° 276° (W) 19:16:29 435.215
XW-2D 18 Nov 19:04:18 19:06:08 13° 268° (W) 19:07:58 145.860 - 145.880
CUBEBUG 2 18 Nov 19:04:54 19:09:31 66° 75° (ENE) 19:14:01 437.445
SEEDS 18 Nov 19:16:27 19:20:35 89° 257° (WSW) 19:24:48 437.485
CUTE-I 18 Nov 19:19:10 19:23:11 21° 266° (W) 19:27:15 437.470
HO-68 18 Nov 19:19:50 19:26:56 61° 258° (WSW) 19:34:04 435.675
AO-73 18 Nov 19:22:56 19:26:30 25° 70° (ENE) 19:30:00 145.935
KKS-1 18 Nov 19:26:15 19:27:57 12° 298° (WNW) 19:29:38 437.445
AAUSAT CUBESAT 2 18 Nov 19:32:25 19:36:27 57° 75° (ENE) 19:40:31 437.432
Oscar 11 18 Nov 19:42:36 19:46:15 28° 70° (ENE) 19:49:55 .
RS-15 18 Nov 19:42:52 19:55:08 81° 118° (ESE) 20:07:26 29.354- 29.394
FO-29 18 Nov 19:44:36 19:49:22 17° 87° (E) 19:53:58 435.910
STARS 18 Nov 19:58:38 20:00:37 13° 297° (WNW) 20:02:36 437.465
ZACube-1 18 Nov 20:05:13 20:09:36 88° 76° (ENE) 20:13:55 437.345
UWE-3 18 Nov 20:08:23 20:12:42 43° 261° (W) 20:16:55 435.000/436.395/437.385
STRAND 1 18 Nov 20:11:29 20:16:38 84° 103° (ESE) 20:21:44 437.568
CUTE 1.7 + AOD 2 18 Nov 20:19:26 20:20:24 11° 270° (W) 20:21:21 437.475
XW-2A 18 Nov 20:20:05 20:22:47 23° 264° (W) 20:25:29 145.665 - 145.685
SRMSAT 18 Nov 20:24:32 20:25:47 11° 176° (S) 20:27:02 437.500
DELFI C3 18 Nov 20:31:46 20:34:32 19° 68° (ENE) 20:37:20 145.870
Max Valier Satellite 18 Nov 20:40:21 20:42:25 15° 68° (ENE) 20:44:29 145.860
CUBEBUG 2 18 Nov 20:45:03 20:46:28 11° 270° (W) 20:47:52 437.445
EO-88 18 Nov 20:46:15 20:47:38 12° 66° (ENE) 20:48:59 145.990 - 145.960
AO-73 18 Nov 20:59:00 21:02:37 26° 264° (W) 21:06:13 145.935
AAUSAT CUBESAT 2 18 Nov 21:11:42 21:12:14 10° 270° (W) 21:12:47 437.432
Oscar 11 18 Nov 21:18:54 21:22:20 23° 265° (W) 21:25:47 .
FO-29 18 Nov 21:27:20 21:35:17 89° 285° (WNW) 21:42:46 435.910
UNISAT 6 18 Nov 21:33:01 21:35:58 18° 93° (E) 21:38:54 437.425
TIGRISAT 18 Nov 21:38:07 21:41:08 19° 93° (E) 21:44:08 435.000
nSIGHT-1 18 Nov 21:42:40 21:45:41 39° 136° (SE) 21:48:43 .
STRAND 1 18 Nov 21:53:13 21:55:04 12° 300° (WNW) 21:56:55 437.568
NO-84 18 Nov 21:56:00 21:58:39 16° 23° (NNE) 22:01:17 435.350 FM
RS-15 18 Nov 21:58:02 22:09:01 36° 322° (NW) 22:19:56 29.354- 29.394
DELFI C3 18 Nov 22:05:33 22:09:02 30° 263° (W) 22:12:35 145.870
ESTCUBE 1 18 Nov 22:06:09 22:08:24 14° 64° (ENE) 22:10:39 437.505/2401.250
Max Valier Satellite 18 Nov 22:12:37 22:15:56 32° 263° (W) 22:19:16 145.860
SRMSAT 18 Nov 22:13:25 22:13:59 10° 186° (S) 22:14:35 437.500
ISS 18 Nov 22:17:19 22:20:35 77° 140° (SE) 22:23:51 437.550
EO-88 18 Nov 22:17:26 22:20:51 40° 261° (W) 22:24:18 145.990 - 145.960
LO-87 18 Nov 22:50:41 22:54:12 53° 75° (ENE) 22:57:44 145.935 - 145.965
SO-50 18 Nov 22:57:54 23:02:22 90° 75° (ENE) 23:06:53 436.795
UNISAT 6 18 Nov 23:08:53 23:12:47 35° 289° (WNW) 23:16:38 437.425
FO-29 18 Nov 23:14:00 23:19:10 20° 303° (WNW) 23:24:13 435.910
TIGRISAT 18 Nov 23:14:04 23:17:54 33° 289° (WNW) 23:21:43 435.000
nSIGHT-1 18 Nov 23:19:19 23:22:00 24° 333° (NNW) 23:24:41 .
PRISM 18 Nov 23:23:27 23:27:36 71° 286° (WNW) 23:31:44 437.425
O/OREOS (USA 219) 18 Nov 23:24:28 23:28:03 22° 59° (ENE) 23:31:36 437.305
EO-79 18 Nov 23:31:59 23:34:02 13° 92° (E) 23:36:04 145.935-145.965
NO-84 18 Nov 23:32:28 23:36:44 63° 41° (NE) 23:40:54 435.350 FM
AIST 2D 18 Nov 23:33:34 23:36:57 43° 99° (E) 23:40:19 435.315
NANOSAT C BR1 18 Nov 23:37:07 23:39:10 13° 92° (E) 23:41:13 145.865
ESTCUBE 1 18 Nov 23:40:19 23:44:41 56° 259° (W) 23:49:07 437.505/2401.250
POLYITAN 1 18 Nov 23:45:39 23:48:42 19° 94° (E) 23:51:43 437.675
ISS 18 Nov 23:55:04 23:57:23 18° 338° (NNW) 23:59:43 437.550
SPROUT 18 Nov 23:55:23 23:59:30 48° 73° (ENE) 00:03:38 437.525
QB50P2 19 Nov 00:08:01 00:11:58 39° 98° (E) 00:15:54 145.880/145.840
VELOX 1 19 Nov 00:12:53 00:17:09 49° 73° (ENE) 00:21:27 145.980
RS-15 19 Nov 00:18:42 00:26:47 19° 356° (N) 00:34:40 29.354- 29.394
BUGSAT 1 19 Nov 00:32:40 00:33:31 11° 91° (E) 00:34:21 437.445
SO-50 19 Nov 00:41:26 00:43:28 13° 320° (NW) 00:45:31 436.795
DUCHIFAT 1 19 Nov 01:01:58 01:06:07 68° 284° (WNW) 01:10:13 145.980
O/OREOS (USA 219) 19 Nov 01:03:24 01:07:32 34° 255° (WSW) 01:11:35 437.305
EO-79 19 Nov 01:06:00 01:10:01 46° 287° (WNW) 01:14:01 145.935-145.965
DX 1 19 Nov 01:07:04 01:11:12 43° 72° (ENE) 01:15:22 434.975-435.025
AIST 2D 19 Nov 01:09:01 01:09:41 10° 294° (WNW) 01:10:21 435.315
NO-84 19 Nov 01:10:56 01:13:41 17° 237° (WSW) 01:16:23 435.350 FM
NANOSAT C BR1 19 Nov 01:11:06 01:15:06 45° 287° (WNW) 01:19:04 145.865
PCSat 19 Nov 01:14:06 01:19:30 77° 116° (ESE) 01:24:56 145.827
Oscar 19 19 Nov 01:16:25 01:20:21 22° 94° (E) 01:24:17 437.125/150
Gurwin Techsat 1B 19 Nov 01:20:45 01:24:11 17° 92° (E) 01:27:35 435.225
POLYITAN 1 19 Nov 01:20:47 01:24:30 32° 289° (WNW) 01:28:13 437.675
50 SAT 19 Nov 01:25:02 01:28:15 84° 77° (ENE) 01:31:31 437.505
SPROUT 19 Nov 01:33:30 01:35:38 13° 268° (W) 01:37:46 437.525
QB50P2 19 Nov 01:44:46 01:47:25 17° 294° (WNW) 01:50:03 145.880/145.840
BEESAT 19 Nov 01:51:23 01:53:22 13° 62° (ENE) 01:55:21 436.000
VELOX 1 19 Nov 01:51:29 01:53:50 14° 268° (W) 01:56:12 145.980
UKube-1 19 Nov 01:54:37 01:58:56 87° 256° (WSW) 02:03:17 .
ITUPSAT 1 19 Nov 01:58:34 02:01:10 15° 63° (ENE) 02:03:45 437.325
BUGSAT 1 19 Nov 02:05:14 02:09:11 53° 286° (WNW) 02:13:04 437.445
AO-7 19 Nov 02:25:59 02:29:14 13° 89° (E) 02:32:29 .
MOZHAYETS 4 19 Nov 02:33:59 02:38:14 40° 72° (ENE) 02:42:31
RS-15 19 Nov 02:34:49 02:44:58 30° 32° (NNE) 02:54:38 29.354- 29.394
nSIGHT-1 19 Nov 02:35:28 02:36:35 11° 13° (NNE) 02:37:41 .
CUBESAT XI-V 19 Nov 02:41:59 02:43:12 11° 62° (ENE) 02:44:26 437.345
DX 1 19 Nov 02:44:57 02:47:34 16° 267° (W) 02:50:11 434.975-435.025
Oscar 19 19 Nov 02:54:58 02:59:48 42° 290° (WNW) 03:04:38 437.125/150
Gurwin Techsat 1B 19 Nov 02:59:15 03:04:27 56° 288° (WNW) 03:09:38 435.225
PCSat 19 Nov 02:59:57 03:03:30 17° 315° (NW) 03:07:03 145.827
ITAMSAT 1 19 Nov 03:04:41 03:06:49 12° 90° (E) 03:08:56 435.822/435.867
ISS 19 Nov 03:10:37 03:12:33 15° 18° (NNE) 03:14:29 437.550
BEESAT 19 Nov 03:25:45 03:30:30 72° 258° (WSW) 03:35:17 436.000
ITUPSAT 1 19 Nov 03:33:44 03:38:27 60° 259° (WSW) 03:43:12 437.325
M-CUBED/EXP-1 PRIME 19 Nov 03:36:28 03:41:00 81° 288° (WNW) 03:45:38 437.505
BEESAT 3 19 Nov 03:41:50 03:45:48 73° 118° (ESE) 03:49:48 437.485
nSIGHT-1 19 Nov 04:10:31 04:13:31 37° 32° (NNE) 04:16:31 .
MOZHAYETS 4 19 Nov 04:12:24 04:15:31 18° 267° (W) 04:18:41
AO-7 19 Nov 04:14:50 04:23:13 75° 106° (ESE) 04:31:34 .
CUBESAT XI-V 19 Nov 04:15:20 04:19:54 75° 258° (WSW) 04:24:31 437.345
AO-85 19 Nov 04:17:05 04:19:32 16° 110° (ESE) 04:22:02 145.980
ITAMSAT 1 19 Nov 04:41:34 04:46:47 73° 286° (WNW) 04:51:56 435.822/435.867
DOVE 4 19 Nov 04:43:36 04:47:34 22° 92° (E) 04:51:23 437.250
KKS-1 19 Nov 04:44:05 04:48:25 52° 73° (ENE) 04:52:47 437.445
ISS 19 Nov 04:46:16 04:49:31 67° 37° (NE) 04:52:45 437.550
BEESAT 2 19 Nov 04:47:06 04:51:06 77° 302° (WNW) 04:55:10 435.950
